This is the latest recevied weather packets stored in our database for station/object WX7FGZ-7. If no packets are shown the sender has not sent any weather packets the latest 10 day(s).
| Time | Temp. | Humidity | Pressure | Rain* | Wind** | Luminosity | Snow |
|---|---|---|---|---|---|---|---|
| 1777848913 | 19.44° C | 46% | 1014.3 hPa | 0.51 mm | - | - | - |
| 1777848615 | 18.89° C | 50% | 1014.6 hPa | 0.51 mm | - | - | - |
| 1777848319 | 18.33° C | 54% | 1014.6 hPa | 0.51 mm | - | - | - |
| 1777848013 | 17.78° C | 56% | 1015 hPa | 0.51 mm | - | - | - |
| 1777847629 | 17.22° C | 61% | 1015.5 hPa | 0.51 mm | - | - | - |
| 1777847413 | 17.22° C | 61% | 1015.5 hPa | 0.51 mm | - | - | - |
| 1777845983 | 26.11° C | 20% | 1016.4 hPa | 0 mm | - | - | - |
| 1777845856 | 23.89° C | 24% | 1014.8 hPa | 0 mm | - | - | - |
| 1777845613 | 23.89° C | 24% | 1014.8 hPa | 0 mm | - | - | - |
| 1777845324 | 23.89° C | 24% | 1014.8 hPa | 0 mm | - | - | - |
| 1777844378 | 25° C | 22% | 1015 hPa | 0 mm | - | - | - |
| 1777844146 | 25° C | 22% | 1015 hPa | 0 mm | - | - | - |
| 1777843867 | 26.11° C | 20% | 1015.2 hPa | 0 mm | - | - | - |
| 1777843813 | 25° C | 21% | 1015 hPa | 0 mm | - | - | - |
| 1777843522 | 26.11° C | 20% | 1015.2 hPa | 0 mm | - | - | - |
| 1777843238 | 26.67° C | 20% | 1015.2 hPa | 0 mm | - | - | - |
| 1777843103 | 26.11° C | 22% | 1015.4 hPa | 0 mm | - | - | - |
| 1777842914 | 26.11° C | 22% | 1015.4 hPa | 0 mm | - | - | - |
| 1777842618 | 25.56° C | 24% | 1015.4 hPa | 0 mm | - | - | - |
| 1777842318 | 25° C | 21% | 1015.4 hPa | 0 mm | - | - | - |
| 1777841117 | 24.44° C | 23% | 1015.9 hPa | 0 mm | - | - | - |
| 1777840982 | 24.44° C | 22% | 1016 hPa | 0 mm | - | - | - |
| 1777840822 | 24.44° C | 22% | 1016 hPa | 0 mm | - | - | - |
| 1777840513 | 24.44° C | 22% | 1016.2 hPa | 0 mm | - | - | - |
| 1777840220 | 25.56° C | 21% | 1016.3 hPa | 0 mm | - | - | - |
* Rain latest hour (hover to see other rain measurements)
** Current wind speed in m/s (hover to see current wind gust speed)